Altoona, PA

3:22 PM EDT on August 20, 2019 (GMT -0400)
Altoona-Blair County

Weather History for KAOO - May, 2019

Change the Weather History Date:

Friday, May 24, 2019

  Actual Average Record
Temperature  
Mean Temperature 67 °F 60 °F  
Max Temperature 77 °F 71 °F 86 °F (1962)
Min Temperature 56 °F 50 °F 30 °F (1963)
Degree Days  
Heating Degree Days 0 6  
Month to date heating degree days 116 206  
Since 1 July heating degree days 5670 6124  
Cooling Degree Days 2 1  
Month to date cooling degree days 30 14  
Year to date cooling degree days 30 20  
Growing Degree Days 16 (Base 50)    
Moisture  
Dew Point 51 °F    
Average Humidity 55    
Maximum Humidity 72    
Minimum Humidity 38    
Precipitation  
Precipitation T in 0.13 in 1.09 in (1978)
Month to date precipitation 4.31 2.87  
Year to date precipitation 17.12 13.34  
Sea Level Pressure  
Sea Level Pressure 30.07 in    
Wind  
Wind Speed 8 mph (NW)    
Max Wind Speed 21 mph    
Max Gust Speed 27 mph    
Visibility 10 miles    
Events Rain    
T = Trace of Precipitation, MM = Missing Value Source: NWS Daily Summary

Daily Weather History Graph

Daily Weather History Graph

Search for Another Location

Airport or City:

Astronomy

May. 24, 2019 Rise Set
Actual Time 5:50 AM EDT 8:30 PM EDT
Civil Twilight 5:18 AM EDT 9:02 PM EDT
Nautical Twilight 4:38 AM EDT 9:41 PM EDT
Astronomical Twilight 3:54 AM EDT 10:26 PM EDT
Moon 12:54 AM EDT (5/24) 10:49 AM EDT (5/24)
Length of Visible Light 15h 43m
Length of Day
14h 40m
Waning Gibbous, 69% of the Moon is Illuminated
May 24
Waning Gibbous
May 26
Last Quarter
Jun 3
New
Jun 10
First Quarter
Jun 17
Full

Hourly Weather History & Observations

Time (EDT) Temp. Dew Point Humidity Pressure Visibility Wind Dir Wind Speed Gust Speed Precip Events Conditions
12:53 AM 69.1 °F 64.9 °F 87% 29.96 in 3.0 mi NW 12.7 mph 21.9 mph 0.10 in Rain Light Rain
1:53 AM 68.0 °F 60.1 °F 76% 29.97 in 10.0 mi NW 15.0 mph 21.9 mph 0.00 in   Mostly Cloudy
2:53 AM 64.9 °F 53.1 °F 65% 29.98 in 10.0 mi WNW 12.7 mph - N/A   Mostly Cloudy
3:53 AM 63.0 °F 50.0 °F 63% 29.99 in 10.0 mi NW 13.8 mph - N/A   Clear
4:53 AM 60.1 °F 48.9 °F 67% 30.01 in 10.0 mi NW 8.1 mph - N/A   Clear
5:53 AM 57.9 °F 46.9 °F 67% 30.04 in 10.0 mi Calm Calm - N/A   Clear
6:53 AM 59.0 °F 48.0 °F 67% 30.05 in 10.0 mi WSW 4.6 mph - N/A   Clear
7:53 AM 60.1 °F 46.9 °F 62% 30.07 in 10.0 mi NW 9.2 mph - N/A   Clear
8:53 AM 63.0 °F 48.0 °F 58% 30.08 in 10.0 mi WNW 10.4 mph - N/A   Clear
9:53 AM 64.9 °F 48.0 °F 54% 30.08 in 10.0 mi NNW 11.5 mph - N/A   Clear
10:53 AM 68.0 °F 48.0 °F 49% 30.09 in 10.0 mi NW 11.5 mph - N/A   Clear
11:53 AM 70.0 °F 48.0 °F 46% 30.09 in 10.0 mi WNW 11.5 mph 20.7 mph N/A   Clear
12:53 PM 73.0 °F 48.9 °F 42% 30.09 in 10.0 mi NNW 16.1 mph 23.0 mph N/A   Clear
1:53 PM 73.9 °F 48.0 °F 40% 30.09 in 10.0 mi WNW 16.1 mph 20.7 mph N/A   Clear
2:53 PM 75.0 °F 48.9 °F 40% 30.07 in 10.0 mi NW 8.1 mph 21.9 mph N/A   Clear
3:53 PM 73.0 °F 48.0 °F 41% 30.08 in 10.0 mi NW 11.5 mph - N/A   Mostly Cloudy
4:53 PM 75.0 °F 50.0 °F 41% 30.09 in 10.0 mi North 11.5 mph - N/A   Mostly Cloudy
5:53 PM 75.0 °F 51.1 °F 43% 30.10 in 10.0 mi NNW 10.4 mph - N/A   Partly Cloudy
6:53 PM 73.0 °F 52.0 °F 48% 30.12 in 10.0 mi North 6.9 mph - N/A   Overcast
7:53 PM 71.1 °F 51.1 °F 49% 30.12 in 10.0 mi WNW 3.5 mph - N/A   Overcast
8:53 PM 68.0 °F 52.0 °F 56% 30.11 in 10.0 mi WNW 3.5 mph - N/A   Mostly Cloudy
9:53 PM 66.0 °F 53.1 °F 63% 30.11 in 10.0 mi SE 4.6 mph - N/A   Clear
10:53 PM 63.0 °F 53.1 °F 70% 30.13 in 10.0 mi Calm Calm - N/A   Clear
11:53 PM 63.0 °F 54.0 °F 72% 30.13 in 10.0 mi Calm Calm - N/A   Mostly Cloudy